Weather History for Joplin, MO

Change the Weather History Date:

Wednesday, November 28, 2012

  Actual Average Record
Temperature  
Mean Temperature 40 °F 43 °F  
Max Temperature 55 °F 53 °F 72 °F (1949)
Min Temperature 24 °F 33 °F 10 °F (1976)
Degree Days  
Heating Degree Days 25 22  
Month to date heating degree days 443 459  
Since 1 July heating degree days 767 711  
Cooling Degree Days 0 0  
Month to date cooling degree days 4 5  
Year to date cooling degree days 2106 1696  
Moisture  
Dew Point 27 °F    
Average Humidity 60    
Maximum Humidity 84    
Minimum Humidity 37    
Precipitation  
Precipitation 0.00 in 0.11 in 1.55 in (1997)
Month to date precipitation 1.31 3.54  
Year to date precipitation 36.96 43.49  
Snow  
Snow 0.00 in - - ()
Month to date snowfall 0.0  
Snow Depth 0.00 in    
Sea Level Pressure  
Sea Level Pressure 30.35 in    
Wind  
Wind Speed 5 mph (SSE)    
Max Wind Speed 12 mph    
Max Gust Speed 17 mph    
Visibility 10 miles    
Events      
T = Trace of Precipitation, MM = Missing Value Source: NWS Daily Summary

Daily Weather History Graph

Daily Weather History Graph

Search for Another Location

Airport:

Trip Planner

Search our weather history database for the weather conditions in past years. The results will help you decide how hot, cold, wet, or windy it might be!

Date:

Astronomy

Nov. 28, 2012 Rise Set
Actual Time 7:10 AM CST 5:01 PM CST
Civil Twilight 6:42 AM CST 5:30 PM CST
Nautical Twilight 6:10 AM CST 6:02 PM CST
Astronomical Twilight 5:38 AM CST 6:33 PM CST
Moon 5:17 PM CST (11/28) 7:08 AM CST (11/28)
Length of Visible Light 10h 47m
Length of Day
9h 50m
Full, 100% of the Moon is Illuminated
Nov 28
Full
Dec 6
Last Quarter
Dec 13
New
Dec 19
First Quarter
Dec 28
Full

Hourly Weather History & Observations

Time (CST) Temp. Windchill Dew Point Humidity Pressure Visibility Wind Dir Wind Speed Gust Speed Precip Events Conditions
12:53 AM 28.9 °F 23.9 °F 21.0 °F 72% 30.39 in 10.0 mi South 4.6 mph - N/A   Clear
1:53 AM 28.9 °F 25.2 °F 21.9 °F 75% 30.38 in 10.0 mi SSE 3.5 mph - N/A   Clear
2:53 AM 28.9 °F 23.9 °F 21.9 °F 75% 30.39 in 10.0 mi South 4.6 mph - N/A   Clear
3:53 AM 28.9 °F 25.2 °F 21.9 °F 75% 30.39 in 10.0 mi SSE 3.5 mph - N/A   Clear
4:53 AM 28.9 °F - 23.0 °F 78% 30.39 in 10.0 mi Calm Calm - N/A   Clear
5:53 AM 27.0 °F 23.0 °F 21.9 °F 81% 30.40 in 10.0 mi SSE 3.5 mph - N/A   Clear
6:53 AM 26.1 °F - 21.9 °F 84% 30.42 in 10.0 mi Calm Calm - N/A   Clear
7:53 AM 30.0 °F 25.2 °F 25.0 °F 82% 30.43 in 9.0 mi SSE 4.6 mph - N/A   Clear
8:53 AM 37.0 °F 33.3 °F 28.9 °F 73% 30.45 in 10.0 mi South 4.6 mph - N/A   Clear
9:53 AM 45.0 °F 42.6 °F 30.9 °F 58% 30.45 in 10.0 mi South 4.6 mph - N/A   Clear
10:53 AM 48.9 °F - 30.0 °F 48% 30.44 in 10.0 mi South 4.6 mph - N/A   Clear
11:53 AM 52.0 °F - 28.9 °F 41% 30.41 in 10.0 mi Variable 6.9 mph - N/A   Clear
12:53 PM 53.1 °F - 28.9 °F 40% 30.37 in 10.0 mi South 8.1 mph - N/A   Clear
1:53 PM 54.0 °F - 28.9 °F 38% 30.34 in 10.0 mi SSE 6.9 mph - N/A   Clear
2:53 PM 55.0 °F - 28.9 °F 37% 30.32 in 10.0 mi SSE 3.5 mph - N/A   Clear
3:53 PM 53.1 °F - 30.0 °F 41% 30.30 in 10.0 mi South 5.8 mph - N/A   Clear
4:53 PM 51.1 °F - 30.0 °F 44% 30.29 in 10.0 mi SSE 3.5 mph - N/A   Clear
5:53 PM 48.0 °F - 28.9 °F 48% 30.29 in 10.0 mi Calm Calm - N/A   Clear
6:53 PM 44.1 °F 41.5 °F 28.9 °F 55% 30.30 in 10.0 mi SE 4.6 mph - N/A   Clear
7:53 PM 43.0 °F 39.5 °F 28.9 °F 58% 30.29 in 10.0 mi SE 5.8 mph - N/A   Clear
8:53 PM 43.0 °F 38.2 °F 28.9 °F 58% 30.27 in 10.0 mi SSE 8.1 mph - N/A   Clear
9:53 PM 42.1 °F 37.7 °F 28.9 °F 60% 30.25 in 10.0 mi SSE 6.9 mph - N/A   Clear
10:53 PM 43.0 °F 40.3 °F 28.9 °F 58% 30.24 in 10.0 mi SSE 4.6 mph - N/A   Clear
11:53 PM 42.1 °F 38.4 °F 30.0 °F 62% 30.23 in 10.0 mi SSE 5.8 mph - N/A   Clear